SCP
0 0 0 0 0 0 0 0 0 0 0 0 0 0 0 0 0 0 0 0 0 0 0 0 0 0 0 0 0 0 0 0 0 0 0 0 0 0 0 0 0 0 0
0 0 0 0 0 0 0 0 0 0 0 0 0 0 0 0 0 0 0 0 0 0 0 0 0 0 0 0 0 0 0 0 0 0 0 0 0 0 0 0 0 0 0
0 0 0 0 0 0 0 0 0 0 0 0 0 0 0 0 0 0 0 0 0 0 0 0 0 0 0 0 0 0 0 0 0 0 0 0 0 0 0 0 0 0 0
0 0 0 0 0 0 0 0 0 0 0 0 0 0 0 0 0 0 0 0 0 0 0 0 0 0 0 0 0 0 0 0 0 0 0 0 0 0 0 0 0 0 0
0 0 0 0 0 0 0 0 0 0 0 0 0 0 0 0 0 0 0 0 0 0 0 0 0 0 0 0 0 0 0 0 0 0 0 0 0 0 0 0 0 0 0
0 0 0 0 0 0 0 0 0 0 0 0 0 0 0 0 0 0 0 0 0 0 0 0 0 0 0 0 0 0 0 0 0 0 0 0 0 0 0 0 0 0 0
0 0 0 0 0 0 0 0 0 0 0 0 0 0 0 0 0 0 0 0 0 0 0 0 0 0 0 0 0 0 0 0 0 0 0 0 0 0 0 0 0 0 0
0 0 0 0 0 0 0 0 0 0 0 0 0 0 0 0 0 0 0 0 0 0 0 0 0 0 0 0 0 0 0 0 0 0 0 0 0 0 0 0 0 0 0
0 0 0 0 0 0 0 0 0 0 0 0 0 0 0 0 0 0 0 0 0 0 0 0 0 0 0 0 0 0 0 0 0 0 0 0 0 0 0 0 0 0 0
0 0 0 0 0 0 0 0 0 0 0 0 0 0 0 0 0 0 0 0 0 0 0 0 0 0 0 0 0 0 0 0 0 0 0 0 0 0 0 0 0 0 0
0 0 0 0 0 0 0 0 0 0 0 0 0 0 0 0 0 0 0 0 0 0 0 0 0 0 0 0 0 0 0 0 0 0 0 0 0 0 0 0 0 0 0
0 0 0 0 0 0 0 0 0 0 0 0 0 0 0 0 0 0 0 0 0 0 0 0 0 0 0 0 0 0 0 0 0 0 0 0 0 0 0 0 0 0 0
0 0 0 0 0 0 0 0 0 0 0 0 0 0 0 0 0 0 0 0 0 0 0 0 0 0 0 0 0 0 0 0 0 0 0 0 0 0 0 0 0 0 0
0 0 0 0 0 0 0 0 0 0 0 0 0 0 0 0 0 0 0 0 0 0 0 0 0 0 0 0 0 0 0 0 0 0 0 0 0 0 0 0 0 0 0
0 0 0 0 0 0 0 0 0 0 0 0 0 0 0 0 0 0 0 0 0 0 0 0 0 0 0 0 0 0 0 0 0 0 0 0 0 0 0 0 0 0 0
0 0 0 0 0 0 0 0 0 0 0 0 0 0 0 0 0 0 0 0 0 0 0 0 0 0 0 0 0 0 0 0 0 0 0 0 0 0 0 0 0 0 0
0 0 0 0 0 0 0 0 0 0 0 0 0 0 0 0 0 0 0 0 0 0 0 0 0 0 0 0 0 0 0 0 0 0 0 0 0 0 0 0 0 0 0
0 0 0 0 0 0 0 0 0 0 0 0 0 0 0 0 0 0 0 0 0 0 0 0 0 0 0 0 0 0 0 0 0 0 0 0 0 0 0 0 0 0 0
0 0 0 0 0 0 0 0 0 0 0 0 0 0 0 0 0 0 0 0 0 0 0 0 0 0 0 0 0 0 0 0 0 0 0 0 0 0 0 0 0 0 0
0 0 0 0 0 0 0 0 0 0 0 0 0 0 0 0 0 0 0 0 0 0 0 0 0 0 0 0 0 0 0 0 0 0 0 0 0 0 0 0 0 0 0
0 0 0 0 0 0 0 0 0 0 0 0 0 0 0 0 0 0 0 0 0 0 0 0 0 0 0 0 0 0 0 0 0 0 0 0 0 0 0 0 0 0 0
0 0 0 0 0 0 0 0 0 0 0 0 0 0 0 0 0 0 0 0 0 0 0 0 0 0 0 0 0 0 0 0 0 0 0 0 0 0 0 0 0 0 0
0 0 0 0 0 0 0 0 0 0 0 0 0 0 0 0 0 0 0 0 0 0 0 0 0 0 0 0 0 0 0 0 0 0 0 0 0 0 0 0 0 0 0
0 0 0 0 0 0 0 0 0 0 0 0 0 0 0 0 0 0 0 0 0 0 0 0 0 0 0 0 0 0 0 0 0 0 0 0 0 0 0 0 0 0 0
0 0 0 0 0 0 0 0 0 0 0 0 0 0 0 0 0 0 0 0 0 0 0 0 0 0 0 0 0 0 0 0 0 0 0 0 0 0 0 0 0 0 0
0 0 0 0 0 0 0 0 0 0 0 0 0 0 0 0 0 0 0 0 0 0 0 0 0 0 0 0 0 0 0 0 0 0 0 0 0 0 0 0 0 0 0
Wind_Speed
3 5 6 5 6 6 6 6 6 7 7 7 7 7 7 8 7 7 7 8 8 8 8 8 8 8 8 8 7 7 7 6 6 6 6 6 6 6 6 5 4 5 8
5 6 7 5 6 6 6 7 7 8 7 7 7 7 7 7 7 7 8 7 8 8 8 8 8 8 8 8 7 7 7 7 7 6 5 6 7 6 6 5 4 5 6
5 6 7 5 6 6 7 7 7 7 7 7 7 7 7 7 7 7 7 7 7 8 7 7 7 7 8 8 7 7 7 6 6 4 2 4 7 7 6 6 5 5 6
6 5 7 6 6 6 7 7 7 7 7 7 7 7 7 7 7 7 7 7 7 7 7 7 7 7 8 8 7 7 7 6 5 1 2 4 5 8 6 6 5 5 5
6 6 8 5 6 6 6 7 7 7 7 7 7 7 7 7 7 7 7 7 7 7 7 7 7 7 7 7 7 7 6 6 3 0 5 5 5 7 6 5 5 5 5
6 6 7 5 6 6 6 6 7 7 7 7 7 7 8 7 7 8 7 7 7 7 7 7 7 7 8 7 7 7 6 3 2 4 4 4 5 6 5 5 5 4 5
6 5 7 6 6 6 6 7 7 7 8 8 8 8 7 7 7 7 7 7 7 7 7 7 7 7 8 7 7 7 5 2 2 3 3 4 6 6 5 5 4 4 5
6 5 6 7 6 6 6 6 7 8 8 7 8 7 7 7 7 7 7 7 7 7 7 7 7 7 7 7 7 6 5 3 3 3 4 4 7 5 5 5 5 4 4
5 5 5 5 6 7 6 6 7 7 7 8 7 7 7 7 7 7 7 7 7 7 7 7 7 7 7 7 7 6 5 4 2 3 4 4 6 4 4 5 5 5 5
5 5 4 4 4 5 6 7 7 7 7 7 7 7 6 6 7 6 7 7 7 8 8 7 7 7 8 8 7 5 2 1 3 3 3 6 6 4 4 4 5 5 5
4 4 4 4 4 4 5 6 6 6 6 5 6 5 2 3 5 5 9 8 8 8 8 8 8 7 6 7 6 3 1 1 3 3 4 8 6 5 5 5 5 6 6
4 4 3 4 4 4 3 4 3 3 3 3 4 4 3 4 5 5 8 7 7 7 7 7 6 4 1 3 4 2 1 2 3 3 5 8 6 6 6 6 6 6 6
4 4 4 4 4 4 3 3 2 2 2 3 4 4 3 3 3 3 3 4 4 4 4 4 3 3 3 3 2 2 3 3 2 3 6 7 6 6 6 6 7 7 7
4 4 4 4 4 3 3 3 2 2 2 2 3 3 3 2 2 3 2 3 2 2 3 3 2 4 3 3 3 3 4 3 2 3 6 9 7 7 7 7 7 7 7
4 4 4 3 3 3 3 2 2 2 2 3 2 2 3 2 2 3 3 3 3 2 2 2 2 4 3 4 3 4 4 4 3 4 4 9 9 8 7 7 7 7 7
5 4 4 3 3 3 2 2 2 2 2 2 2 2 3 2 2 2 3 3 3 2 2 2 3 3 3 3 4 4 4 4 4 4 3 6 8 8 7 7 7 7 7
5 4 4 3 3 3 3 2 2 2 2 2 2 2 3 3 2 2 2 2 2 2 2 2 3 2 3 3 3 4 4 4 3 4 4 3 4 7 8 8 8 8 8
5 5 5 3 3 3 3 2 2 2 2 2 2 2 3 3 3 2 2 2 2 2 2 2 2 2 3 2 3 3 3 3 3 4 3 4 3 3 7 8 8 8 8
5 4 4 4 3 3 3 2 2 2 2 2 2 2 2 2 2 2 2 1 2 1 1 2 2 2 3 3 3 3 2 3 3 3 3 4 4 3 4 7 7 8 8
4 4 4 4 3 3 2 2 2 2 2 1 2 2 2 2 2 2 1 1 2 1 1 1 2 2 2 2 2 3 2 2 2 2 2 3 3 4 4 3 3 5 7
5 4 4 4 3 3 2 2 2 2 1 2 2 2 2 1 2 2 1 2 1 2 1 2 2 3 2 1 1 2 2 2 2 2 1 2 3 3 3 3 2 2 3
6 5 4 4 3 3 2 2 1 1 1 1 1 1 1 1 2 1 1 1 2 1 1 2 2 1 1 0 1 1 1 2 1 2 1 1 1 2 2 3 2 2 2
6 6 5 4 4 4 3 2 2 2 1 1 1 1 1 1 2 1 1 1 1 1 1 1 2 1 1 0 1 2 1 0 1 1 1 1 2 1 1 2 2 2 2
6 6 5 4 4 4 4 4 4 2 2 1 1 1 1 1 1 1 1 1 1 1 1 1 1 1 1 1 0 2 2 1 1 1 1 1 1 1 1 1 1 2 2
6 5 5 5 4 4 4 4 4 2 2 1 1 2 1 1 1 1 1 1 1 1 1 1 0 1 1 1 0 0 0 0 2 1 1 1 1 1 1 1 1 1 1
5 5 5 5 5 5 5 5 4 4 3 2 2 2 1 1 1 1 1 1 1 1 1 1 1 1 1 0 0 1 1 1 1 1 1 1 1 1 1 1 0 0 0
Wind_Direction
97 93 89 82 80 74 75 74 70 75 81 85 86 89 89 91 92 91 88 85 84 82 80 80 82 83 82 82 81 84 90 92 91 91 95 95 95 100 105 110 131 123 110
102 101 100 88 84 75 73 72 70 72 76 78 81 86 85 87 94 93 89 86 83 82 79 77 79 80 80 80 79 80 83 89 90 93 103 113 98 91 91 90 70 86 105
108 106 111 92 83 78 80 78 73 72 74 76 79 81 83 82 88 91 90 88 85 86 84 80 79 80 80 78 77 75 76 83 87 100 156 117 105 92 91 97 97 99 103
108 103 91 88 83 79 79 80 79 77 76 78 80 81 81 81 84 86 88 90 87 87 87 83 81 82 80 77 77 76 77 80 87 177 144 93 95 90 91 97 99 103 104
108 99 90 85 81 77 77 78 79 78 77 77 79 80 80 80 83 84 86 86 86 87 87 86 83 81 81 79 77 78 78 82 97 161 71 76 78 82 84 87 90 98 105
110 101 94 84 81 77 77 75 77 79 77 78 79 79 79 80 81 81 83 84 83 83 82 81 83 83 82 81 78 75 74 75 199 79 74 76 81 83 79 81 80 92 106
108 99 96 85 79 78 77 74 74 78 79 79 79 77 76 78 81 80 78 79 79 79 79 78 83 82 81 79 76 72 66 17 47 79 77 74 73 77 79 83 82 91 102
106 104 104 103 88 78 75 75 73 77 79 80 80 79 79 79 79 79 79 79 77 77 77 78 81 78 79 78 74 70 57 338 79 71 70 69 71 75 78 84 85 90 96
105 103 98 104 114 109 88 77 78 77 80 82 80 78 81 86 82 81 79 77 78 77 78 78 78 78 77 75 71 68 57 6 37 59 68 72 81 81 83 84 85 86 91
109 103 97 96 96 102 107 92 84 79 77 79 79 75 82 101 100 92 88 76 76 77 77 78 78 78 76 73 70 66 53 278 48 62 57 71 69 70 83 87 89 86 91
103 96 94 89 90 89 89 102 106 97 88 101 99 97 106 85 89 96 72 75 78 81 81 80 80 82 91 93 76 60 255 50 64 48 55 60 55 61 74 85 92 92 96
116 104 98 96 91 89 85 95 94 93 101 91 84 90 81 73 63 68 93 86 87 92 97 88 92 117 146 101 110 185 65 67 67 65 65 57 53 62 74 82 91 97 101
114 104 94 97 91 89 91 82 74 78 83 86 79 78 74 77 82 72 85 112 107 110 91 103 117 72 68 67 55 61 46 38 51 59 64 57 56 62 74 81 87 91 96
121 113 105 97 95 88 84 84 83 83 80 79 79 76 77 71 67 69 69 67 74 77 70 63 59 70 63 64 61 60 62 50 54 61 62 52 54 63 73 77 82 87 89
134 131 119 110 96 91 83 80 87 77 75 87 78 80 79 72 74 77 77 71 64 67 70 58 58 63 57 53 47 49 55 61 66 73 78 61 53 59 69 75 80 84 89
150 140 131 125 109 103 100 94 79 75 81 75 76 73 78 78 75 75 78 73 63 56 56 61 67 68 63 60 53 52 50 54 62 68 71 87 69 56 62 68 74 80 82
157 149 135 133 131 118 103 91 91 83 84 83 79 72 76 75 77 77 70 75 72 70 68 62 71 69 70 75 68 57 55 46 52 63 63 58 83 80 67 63 67 70 71
163 152 141 144 149 135 127 120 100 88 84 82 81 73 76 81 74 68 66 68 66 63 65 74 72 81 77 71 70 62 65 62 53 54 61 68 59 73 88 71 64 63 64
163 158 153 149 152 142 132 123 105 104 97 93 84 74 70 77 81 81 61 58 73 78 72 77 76 76 80 73 70 64 57 60 60 58 63 64 69 66 77 92 79 63 57
164 161 158 158 159 143 141 133 118 110 102 91 82 71 62 69 81 86 92 81 73 84 81 88 97 94 83 87 78 69 62 67 68 57 51 64 60 61 58 67 90 93 72
174 173 168 174 168 161 157 157 151 137 119 99 79 76 85 93 95 90 79 80 71 84 93 103 107 116 106 100 114 104 96 76 56 78 57 48 62 54 50 62 61 60 101
182 184 180 180 177 176 178 176 166 126 106 83 86 80 77 84 85 96 106 106 106 100 107 112 124 127 111 243 293 239 174 139 90 80 91 68 59 70 42 39 51 61 44
188 190 187 187 185 184 176 161 146 141 156 138 118 99 75 83 89 92 115 118 123 129 121 150 173 184 174 127 342 308 290 86 101 117 89 90 70 55 42 24 22 48 61
192 191 192 188 191 182 177 179 178 184 176 174 151 134 132 111 102 91 107 139 137 114 141 178 163 199 209 181 93 334 335 21 250 163 154 112 76 52 31 16 5 21 46
187 189 195 191 188 182 184 183 197 196 183 166 159 149 150 134 137 132 127 158 142 137 152 164 149 226 212 214 165 123 26 291 273 261 189 176 155 90 35 7 42 25 32
182 184 192 191 188 191 195 194 196 190 186 176 179 171 174 159 164 162 153 174 175 175 187 200 185 187 225 185 217 226 240 253 281 278 245 213 201 114 76 48 78 102 48